When you browse on this site, cookies collect data to enhance your experience and personalize the content and advertising you see.
Visit our Privacy Policy to learn more. By continuing to use the site, you agree to this use of cookies and data.
  • In Czech Republic
  • List of Countries
  • For 7 days
  • Water Temperature
  • Weather Map
  • Weather Widgets
  • user-avatar
    Login

    Hourly Weather Skelleftea

    Today, 27 May, Wednesday

    Time Temperature Precipitation Wind Pressure Humidity
    00:00 +11°C° 0.2 mm 3 mps 763 mmHg 76%
    01:00 +10°C° 0.2 mm 3 mps 763 mmHg 85%
    02:00 +10°C° 0.6 mm 3 mps 763 mmHg 85%
    03:00 +10°C° 0.6 mm 3 mps 762 mmHg 86%
    04:00 +10°C° 0.6 mm 3 mps 762 mmHg 87%
    05:00 +11°C° 0 mm 3 mps 762 mmHg 79%
    06:00 +11°C° 0 mm 4 mps 762 mmHg 71%
    07:00 +12°C° 0 mm 4 mps 762 mmHg 63%
    08:00 +13°C° 0 mm 4 mps 762 mmHg 57%
    09:00 +14°C° 0 mm 4 mps 762 mmHg 50%
    10:00 +16°C° 0 mm 3 mps 761 mmHg 43%
    11:00 +16°C° 0 mm 3 mps 761 mmHg 42%
    12:00 +16°C° 0 mm 3 mps 761 mmHg 40%
    13:00 +17°C° 0 mm 3 mps 761 mmHg 39%
    14:00 +17°C° 0 mm 4 mps 761 mmHg 39%
    15:00 +15°C° 0 mm 4 mps 760 mmHg 39%
    16:00 +15°C° 0 mm 4 mps 760 mmHg 39%
    17:00 +15°C° 0 mm 4 mps 760 mmHg 42%
    18:00 +14°C° 0 mm 4 mps 760 mmHg 45%
    19:00 +13°C° 0 mm 3 mps 760 mmHg 47%
    20:00 +12°C° 0 mm 4 mps 760 mmHg 53%
    21:00 +10°C° 0 mm 4 mps 761 mmHg 58%
    22:00 +8°C° 0 mm 4 mps 761 mmHg 63%
    23:00 +7°C° 0 mm 4 mps 761 mmHg 64%

    Tomorrow, 28 May, Thursday

    Time Temperature Precipitation Wind Pressure Humidity
    00:00 +6°C° 0 mm 4 mps 761 mmHg 65%
    01:00 +5°C° 0 mm 5 mps 761 mmHg 66%
    02:00 +5°C° 0 mm 5 mps 761 mmHg 65%
    03:00 +5°C° 0 mm 5 mps 761 mmHg 63%
    04:00 +5°C° 0 mm 5 mps 761 mmHg 61%
    05:00 +7°C° 0 mm 5 mps 762 mmHg 57%
    06:00 +8°C° 0 mm 4 mps 762 mmHg 52%
    07:00 +10°C° 0 mm 4 mps 762 mmHg 48%
    08:00 +11°C° 0 mm 4 mps 762 mmHg 43%
    09:00 +12°C° 0 mm 4 mps 762 mmHg 39%
    10:00 +13°C° 0 mm 3 mps 762 mmHg 34%
    11:00 +14°C° 0 mm 3 mps 762 mmHg 35%
    12:00 +14°C° 0 mm 4 mps 762 mmHg 35%
    13:00 +14°C° 0 mm 4 mps 762 mmHg 36%
    14:00 +14°C° 0 mm 4 mps 762 mmHg 38%
    15:00 +14°C° 0 mm 4 mps 762 mmHg 40%
    16:00 +14°C° 0 mm 4 mps 761 mmHg 42%
    17:00 +13°C° 0 mm 4 mps 761 mmHg 45%
    18:00 +13°C° 0 mm 4 mps 761 mmHg 48%
    19:00 +12°C° 0 mm 4 mps 761 mmHg 50%
    20:00 +11°C° 0 mm 4 mps 761 mmHg 56%
    21:00 +8°C° 0 mm 4 mps 762 mmHg 62%
    22:00 +7°C° 0 mm 4 mps 762 mmHg 68%
    23:00 +6°C° 0 mm 4 mps 762 mmHg 69%

    Day after tomorrow, 29 May, Friday

    Time Temperature Precipitation Wind Pressure Humidity
    00:00 +6°C° 0 mm 4 mps 762 mmHg 70%
    01:00 +5°C° 0 mm 4 mps 762 mmHg 72%
    02:00 +5°C° 0 mm 4 mps 763 mmHg 71%
    03:00 +5°C° 0 mm 4 mps 763 mmHg 70%
    04:00 +5°C° 0 mm 4 mps 763 mmHg 69%
    05:00 +7°C° 0 mm 4 mps 763 mmHg 64%
    06:00 +8°C° 0 mm 4 mps 763 mmHg 59%
    07:00 +11°C° 0 mm 3 mps 763 mmHg 54%
    08:00 +12°C° 0 mm 3 mps 764 mmHg 50%
    09:00 +13°C° 0 mm 3 mps 764 mmHg 46%
    10:00 +16°C° 0 mm 3 mps 764 mmHg 42%
    11:00 +17°C° 0 mm 3 mps 764 mmHg 40%
    12:00 +17°C° 0 mm 3 mps 763 mmHg 38%
    13:00 +18°C° 0 mm 3 mps 763 mmHg 36%
    14:00 +18°C° 0 mm 3 mps 763 mmHg 36%
    15:00 +19°C° 0 mm 3 mps 763 mmHg 36%
    16:00 +19°C° 0 mm 3 mps 763 mmHg 36%
    17:00 +18°C° 0 mm 3 mps 763 mmHg 39%
    18:00 +17°C° 0 mm 3 mps 764 mmHg 43%
    19:00 +17°C° 0 mm 3 mps 764 mmHg 47%
    20:00 +14°C° 0 mm 3 mps 764 mmHg 52%
    21:00 +12°C° 0 mm 3 mps 765 mmHg 57%
    22:00 +10°C° 0 mm 3 mps 765 mmHg 62%
    23:00 +9°C° 0 mm 3 mps 765 mmHg 66%

    30 May, Saturday

    Time Temperature Precipitation Wind Pressure Humidity
    00:00 +9°C° 0 mm 3 mps 766 mmHg 70%
    01:00 +8°C° 0 mm 3 mps 766 mmHg 73%
    02:00 +8°C° 0 mm 3 mps 767 mmHg 72%
    03:00 +8°C° 0 mm 3 mps 767 mmHg 71%
    04:00 +9°C° 0 mm 3 mps 767 mmHg 70%
    05:00 +10°C° 0 mm 3 mps 767 mmHg 64%
    06:00 +11°C° 0 mm 3 mps 768 mmHg 59%
    07:00 +13°C° 0 mm 3 mps 768 mmHg 53%
    08:00 +14°C° 0 mm 3 mps 768 mmHg 49%
    09:00 +16°C° 0 mm 2 mps 768 mmHg 45%
    10:00 +17°C° 0 mm 2 mps 768 mmHg 42%
    11:00 +18°C° 0 mm 2 mps 769 mmHg 40%
    12:00 +18°C° 0 mm 2 mps 769 mmHg 38%
    13:00 +19°C° 0 mm 2 mps 769 mmHg 37%
    14:00 +19°C° 0 mm 2 mps 768 mmHg 38%
    15:00 +18°C° 0 mm 2 mps 768 mmHg 39%
    16:00 +18°C° 0 mm 2 mps 768 mmHg 40%
    17:00 +17°C° 0 mm 2 mps 768 mmHg 43%
    18:00 +16°C° 0 mm 2 mps 768 mmHg 47%
    19:00 +15°C° 0 mm 1 mps 768 mmHg 50%
    20:00 +14°C° 0 mm 1 mps 768 mmHg 54%
    21:00 +12°C° 0 mm 1 mps 769 mmHg 58%
    22:00 +11°C° 0 mm 1 mps 769 mmHg 62%
    23:00 +11°C° 0 mm 1 mps 769 mmHg 62%

    31 May, Sunday

    Time Temperature Precipitation Wind Pressure Humidity
    00:00 +10°C° 0 mm 1 mps 770 mmHg 62%
    01:00 +10°C° 0 mm 1 mps 770 mmHg 62%
    02:00 +11°C° 0 mm 1 mps 770 mmHg 62%
    03:00 +11°C° 0 mm 1 mps 770 mmHg 61%
    04:00 +12°C° 0 mm 1 mps 770 mmHg 61%
    05:00 +14°C° 0 mm 1 mps 770 mmHg 55%
    06:00 +16°C° 0 mm 1 mps 770 mmHg 50%
    07:00 +18°C° 0 mm 1 mps 770 mmHg 44%
    08:00 +19°C° 0 mm 2 mps 770 mmHg 41%
    09:00 +20°C° 0 mm 2 mps 770 mmHg 39%
    10:00 +21°C° 0 mm 3 mps 770 mmHg 36%
    11:00 +22°C° 0 mm 3 mps 770 mmHg 35%
    12:00 +22°C° 0 mm 3 mps 769 mmHg 34%
    13:00 +24°C° 0 mm 3 mps 769 mmHg 33%
    14:00 +24°C° 0 mm 3 mps 769 mmHg 33%
    15:00 +24°C° 0 mm 3 mps 768 mmHg 34%
    16:00 +24°C° 0 mm 3 mps 768 mmHg 34%
    17:00 +22°C° 0 mm 3 mps 768 mmHg 38%
    18:00 +21°C° 0 mm 3 mps 768 mmHg 43%
    19:00 +21°C° 0 mm 3 mps 767 mmHg 47%
    20:00 +19°C° 0 mm 3 mps 767 mmHg 52%
    21:00 +17°C° 0 mm 3 mps 767 mmHg 56%
    22:00 +16°C° 0 mm 3 mps 767 mmHg 61%
    23:00 +14°C° 0 mm 3 mps 767 mmHg 61%

    1 June, Monday

    Time Temperature Precipitation Wind Pressure Humidity
    00:00 +14°C° 0 mm 3 mps 767 mmHg 60%
    01:00 +14°C° 0 mm 3 mps 767 mmHg 60%
    02:00 +14°C° 0 mm 3 mps 767 mmHg 60%
    03:00 +14°C° 0 mm 3 mps 767 mmHg 60%
    04:00 +14°C° 0 mm 3 mps 767 mmHg 59%
    05:00 +17°C° 0 mm 3 mps 767 mmHg 54%
    06:00 +18°C° 0 mm 3 mps 766 mmHg 48%
    07:00 +20°C° 0 mm 3 mps 766 mmHg 43%
    08:00 +21°C° 0 mm 3 mps 766 mmHg 40%
    09:00 +22°C° 0 mm 3 mps 766 mmHg 38%
    10:00 +24°C° 0 mm 3 mps 766 mmHg 35%
    11:00 +25°C° 0 mm 4 mps 765 mmHg 34%
    12:00 +25°C° 0 mm 4 mps 765 mmHg 34%
    13:00 +26°C° 0 mm 4 mps 765 mmHg 33%
    14:00 +25°C° 0 mm 4 mps 765 mmHg 33%
    15:00 +25°C° 0 mm 4 mps 764 mmHg 34%
    16:00 +25°C° 0 mm 4 mps 764 mmHg 34%
    17:00 +23°C° 0 mm 4 mps 764 mmHg 39%
    18:00 +22°C° 0 mm 3 mps 763 mmHg 44%
    19:00 +21°C° 0 mm 3 mps 763 mmHg 48%
    20:00 +19°C° 0 mm 3 mps 763 mmHg 53%
    21:00 +18°C° 0 mm 3 mps 763 mmHg 58%
    22:00 +16°C° 0 mm 3 mps 763 mmHg 62%
    23:00 +16°C° 0 mm 3 mps 763 mmHg 64%
    Show more